TimeCDT,TemperatureF,Dew PointF,Humidity,Sea Level PressureIn,VisibilityMPH,Wind Direction,Wind SpeedMPH,Gust SpeedMPH,PrecipitationIn,Events,Conditions,WindDirDegrees,DateUTC
12:53 AM,46.9,46.0,97,29.74,0.2,NE,10.4,-,N/A,Fog,Fog,40,2012-10-24 05:53:00
1:53 AM,48.0,48.0,100,29.77,0.2,ENE,9.2,-,N/A,Fog,Fog,70,2012-10-24 06:53:00
2:53 AM,48.0,48.0,100,29.77,0.2,NNE,13.8,-,0.01,Fog,Fog,30,2012-10-24 07:53:00
3:53 AM,50.0,50.0,100,29.74,0.5,NE,15.0,-,N/A,Fog,Fog,40,2012-10-24 08:53:00
4:53 AM,52.0,51.1,97,29.75,0.5,NE,13.8,20.7,N/A,Fog,Fog,40,2012-10-24 09:53:00
5:05 AM,51.8,51.8,100,29.75,1.8,NNE,12.7,-,N/A,,Overcast,30,2012-10-24 10:05:00
5:12 AM,51.8,51.8,100,29.75,2.5,NE,15.0,-,N/A,,Overcast,40,2012-10-24 10:12:00
5:19 AM,51.8,51.8,100,29.75,3.0,NE,17.3,-,N/A,,Overcast,50,2012-10-24 10:19:00
5:53 AM,52.0,51.1,97,29.75,4.0,NNE,15.0,-,N/A,,Overcast,30,2012-10-24 10:53:00
6:53 AM,51.1,51.1,100,29.76,4.0,NE,17.3,-,N/A,,Overcast,40,2012-10-24 11:53:00
7:20 AM,51.8,51.8,100,29.78,1.8,North,16.1,19.6,N/A,,Overcast,360,2012-10-24 12:20:00
7:31 AM,50.0,50.0,100,29.79,0.5,North,16.1,-,N/A,Fog,Fog,10,2012-10-24 12:31:00
7:49 AM,50.0,50.0,100,29.79,1.0,North,17.3,-,N/A,,Overcast,10,2012-10-24 12:49:00
7:53 AM,50.0,48.9,96,29.79,1.0,North,18.4,-,N/A,,Overcast,10,2012-10-24 12:53:00
8:53 AM,48.9,48.0,97,29.82,1.8,North,17.3,-,N/A,,Overcast,10,2012-10-24 13:53:00
9:22 AM,48.2,48.2,100,29.83,2.0,North,12.7,23.0,N/A,,Overcast,10,2012-10-24 14:22:00
9:31 AM,48.2,48.2,100,29.82,1.8,North,16.1,20.7,N/A,,Overcast,10,2012-10-24 14:31:00
9:44 AM,48.2,48.2,100,29.82,2.0,North,18.4,-,N/A,,Overcast,360,2012-10-24 14:44:00
9:53 AM,48.9,48.0,97,29.83,2.5,North,16.1,-,N/A,,Overcast,10,2012-10-24 14:53:00
10:08 AM,50.0,48.2,94,29.81,3.0,NNE,16.1,-,N/A,,Overcast,20,2012-10-24 15:08:00
10:53 AM,51.1,50.0,96,29.81,5.0,NNE,15.0,24.2,N/A,,Overcast,20,2012-10-24 15:53:00
11:53 AM,50.0,48.9,96,29.83,4.0,NNE,13.8,-,N/A,,Overcast,20,2012-10-24 16:53:00
12:53 PM,50.0,48.0,93,29.80,3.0,NNE,15.0,-,N/A,,Overcast,20,2012-10-24 17:53:00
1:11 PM,50.0,48.2,94,29.78,2.5,North,16.1,21.9,N/A,,Overcast,10,2012-10-24 18:11:00
1:53 PM,50.0,48.9,96,29.80,3.0,NNE,15.0,-,N/A,,Overcast,30,2012-10-24 18:53:00
2:09 PM,50.0,48.2,94,29.79,2.0,NNE,12.7,-,N/A,,Overcast,20,2012-10-24 19:09:00
2:20 PM,50.0,48.2,94,29.79,1.8,NNE,12.7,-,N/A,,Overcast,30,2012-10-24 19:20:00
2:53 PM,50.0,48.9,96,29.78,1.2,North,15.0,-,0.00,Rain,Light Rain,10,2012-10-24 19:53:00
3:02 PM,50.0,48.2,94,29.78,1.2,NNE,12.7,-,0.00,Rain,Light Rain,20,2012-10-24 20:02:00
3:28 PM,50.0,48.2,94,29.78,1.2,NNE,9.2,-,0.00,Rain,Light Rain,20,2012-10-24 20:28:00
3:42 PM,50.0,48.2,94,29.78,1.5,NNE,12.7,-,0.00,Rain,Light Rain,20,2012-10-24 20:42:00
3:50 PM,50.0,48.2,94,29.78,1.5,NNE,10.4,-,0.00,Rain,Light Rain,20,2012-10-24 20:50:00
3:53 PM,50.0,48.9,96,29.79,1.5,NNE,10.4,-,0.00,Rain,Light Rain,20,2012-10-24 20:53:00
4:18 PM,48.2,48.2,100,29.77,2.0,NNE,13.8,-,0.01,Rain,Light Rain,20,2012-10-24 21:18:00
4:34 PM,48.2,46.4,93,29.76,1.8,NNE,16.1,-,0.01,,Overcast,20,2012-10-24 21:34:00
4:48 PM,48.2,46.4,93,29.77,2.5,NNE,13.8,-,0.01,,Overcast,30,2012-10-24 21:48:00
4:53 PM,48.9,46.9,93,29.77,3.0,NNE,13.8,-,0.01,,Overcast,20,2012-10-24 21:53:00
5:28 PM,48.2,46.4,93,29.77,1.8,NNE,15.0,-,N/A,,Overcast,20,2012-10-24 22:28:00
5:44 PM,48.2,46.4,93,29.77,2.0,NNE,15.0,-,0.00,Rain,Light Rain,20,2012-10-24 22:44:00
5:53 PM,46.9,46.0,97,29.78,2.0,NNE,13.8,-,0.00,Rain,Light Rain,20,2012-10-24 22:53:00
6:00 PM,46.4,46.4,100,29.77,1.8,NNE,13.8,-,0.00,Rain,Light Rain,20,2012-10-24 23:00:00
6:41 PM,46.4,46.4,100,29.78,3.0,NNE,13.8,-,0.00,Rain,Light Rain,30,2012-10-24 23:41:00
6:53 PM,46.9,46.0,97,29.78,4.0,NNE,15.0,-,0.00,Rain,Light Rain,20,2012-10-24 23:53:00
7:53 PM,46.4,46.4,100,29.78,3.0,NNE,13.8,-,N/A,,Overcast,20,2012-10-25 00:53:00
8:53 PM,46.0,44.1,93,29.81,6.0,NNE,19.6,23.0,N/A,,Overcast,30,2012-10-25 01:53:00
9:13 PM,46.4,44.6,93,29.80,6.0,NNE,18.4,-,N/A,,Overcast,20,2012-10-25 02:13:00
9:34 PM,46.4,42.8,87,29.79,10.0,NNE,20.7,-,N/A,,Overcast,20,2012-10-25 02:34:00
9:53 PM,46.0,42.1,86,29.79,10.0,NNE,19.6,27.6,N/A,,Overcast,20,2012-10-25 02:53:00
10:53 PM,45.0,39.9,82,29.78,10.0,NNE,19.6,-,0.01,,Overcast,20,2012-10-25 03:53:00
11:10 PM,44.6,37.4,76,29.76,10.0,NNE,21.9,27.6,0.00,Rain-Thunderstorm,Light Rain,30,2012-10-25 04:10:00
11:30 PM,42.8,37.4,81,29.77,1.8,NNE,17.3,-,0.32,Rain-Thunderstorm,Heavy Thunderstorms and Rain,20,2012-10-25 04:30:00
11:36 PM,42.8,39.2,87,29.78,3.0,NNE,15.0,-,N/A,Rain-Thunderstorm,Heavy Thunderstorms and Rain,20,2012-10-25 04:36:00
11:53 PM,43.0,37.9,82,29.80,10.0,North,20.7,26.5,0.36,Rain-Thunderstorm,Light Rain,10,2012-10-25 04:53:00